Location: Unspecified
(0.0000°N, 0.0000°E)
Time: 09:11:50
(UTC+00:00)

S-56A Canister/Altair - Pass Details

Date: 22 December 2018
Orbit: 633 x 2500 km, 38.9° (Epoch: 24 March)

Event Time Altitude Azimuth Distance (km) Brightness Sun altitude
Rises 12:02:34 0° 271° (W) 6,111 12.1 66.5°
Reaches altitude 10° 12:09:08 10° 253° (WSW) 4,909 11.9 66.4°
Maximum altitude 12:16:30 16° 220° (SW) 4,051 11.8 66.2°
Drops below altitude 10° 12:22:53 10° 185° (S) 4,128 11.8 65.8°
Sets 12:27:41 0° 164° (SSE) 4,741 11.9 65.5°
